Canby, MN

6:03 PM CST on February 12, 2016 (GMT -0600)
Canby

Weather History for KCNB - May, 2014

Change the Weather History Date:

Monday, May 5, 2014

  Actual Average (KMML) Record (KMML)
Temperature  
Mean Temperature 50 °F -  
Max Temperature 66 °F 68 °F 89 °F (2000)
Min Temperature 34 °F 43 °F 28 °F (1968)
Degree Days  
Heating Degree Days 15    
Moisture  
Dew Point 36 °F    
Average Humidity 59    
Maximum Humidity 94    
Minimum Humidity 31    
Precipitation  
Precipitation 0.00 in - - ()
Sea Level Pressure  
Sea Level Pressure 29.94 in    
Wind  
Wind Speed 4 mph (NE)    
Max Wind Speed 16 mph    
Max Gust Speed 18 mph    
Visibility 10 miles    
Events      
Averages and records for this station are not official NWS values.
T = Trace of Precipitation, MM = Missing Value Source: NWS Daily Summary

Daily Weather History Graph

Daily Weather History Graph

Search for Another Location

Airport or City:

Trip Planner

Search our weather history database for the weather conditions in past years. The results will help you decide how hot, cold, wet, or windy it might be!

Date:

Astronomy

May. 05, 2014 Rise Set
Actual Time 6:09 AM CDT 8:34 PM CDT
Civil Twilight 5:36 AM CDT 9:07 PM CDT
Nautical Twilight 4:55 AM CDT 9:48 PM CDT
Astronomical Twilight 4:10 AM CDT 10:35 PM CDT
Moon 11:30 AM CDT (5/5) 1:19 AM CDT (5/5)
Length of Visible Light 15h 31m
Length of Day
14h 25m
Waxing Crescent, 37% of the Moon is Illuminated
May 5
Waxing Crescent
May 6
First Quarter
May 14
Full
May 21
Last Quarter
May 28
New

Hourly Weather History & Observations

Time (CDT) Temp. Windchill Dew Point Humidity Pressure Visibility Wind Dir Wind Speed Gust Speed Precip Events Conditions
12:15 AM 45.5 °F - 36.3 °F 70% 30.00 in 10.0 mi Calm Calm - N/A   Overcast
12:34 AM 45.5 °F - 36.0 °F 69% 29.99 in 10.0 mi Calm Calm - N/A   Overcast
12:54 AM 45.7 °F - 35.4 °F 67% 29.98 in 10.0 mi Calm Calm - N/A   Overcast
1:14 AM 45.9 °F - 35.6 °F 67% 29.98 in 10.0 mi Calm Calm - N/A   Overcast
1:34 AM 45.9 °F 43.6 °F 35.1 °F 66% 29.97 in 10.0 mi East 4.6 mph - N/A   Overcast
1:54 AM 45.0 °F 41.2 °F 34.2 °F 66% 29.95 in 10.0 mi ESE 6.9 mph - N/A   Mostly Cloudy
2:14 AM 44.4 °F - 33.3 °F 65% 29.96 in 10.0 mi Calm Calm - N/A   Clear
2:34 AM 44.2 °F - 33.3 °F 65% 29.96 in 10.0 mi Calm Calm - N/A   Clear
2:54 AM 41.0 °F 39.0 °F 33.8 °F 76% 29.95 in 10.0 mi West 3.5 mph - N/A   Clear
3:14 AM 36.9 °F 33.1 °F 33.4 °F 87% 29.95 in 10.0 mi WNW 4.6 mph - N/A   Clear
3:34 AM 35.8 °F 30.9 °F 32.9 °F 89% 29.95 in 10.0 mi NW 5.8 mph - N/A   Clear
3:54 AM 35.6 °F 30.7 °F 32.7 °F 89% 29.97 in 10.0 mi NW 5.8 mph - N/A   Clear
4:14 AM 37.0 °F 32.4 °F 33.3 °F 86% 29.97 in 10.0 mi NW 5.8 mph - N/A   Clear
4:34 AM 36.9 °F 33.1 °F 32.7 °F 85% 29.97 in 10.0 mi NW 4.6 mph - N/A   Clear
4:54 AM 36.7 °F 32.0 °F 33.3 °F 87% 29.97 in 10.0 mi NW 5.8 mph - N/A   Clear
5:14 AM 35.8 °F 30.9 °F 32.5 °F 88% 29.97 in 10.0 mi WNW 5.8 mph - N/A   Clear
5:34 AM 35.4 °F 29.7 °F 32.5 °F 89% 29.97 in 10.0 mi WNW 6.9 mph - N/A   Clear
5:54 AM 34.7 °F 30.6 °F 32.9 °F 93% 29.97 in 10.0 mi NW 4.6 mph - N/A   Clear
6:14 AM 34.9 °F 30.8 °F 32.9 °F 92% 29.97 in 10.0 mi WNW 4.6 mph - N/A   Clear
6:34 AM 35.2 °F 31.2 °F 33.6 °F 94% 29.97 in 10.0 mi West 4.6 mph - N/A   Clear
6:54 AM 35.8 °F 31.9 °F 34.0 °F 93% 29.98 in 10.0 mi West 4.6 mph - N/A   Clear
7:15 AM 38.3 °F 34.8 °F 35.8 °F 91% 29.99 in 10.0 mi WNW 4.6 mph - N/A   Clear
7:34 AM 40.3 °F - 36.9 °F 88% 29.99 in 10.0 mi Calm Calm - N/A   Clear
7:54 AM 42.6 °F - 37.2 °F 81% 29.99 in 10.0 mi Calm Calm - N/A   Clear
8:15 AM 44.4 °F - 36.9 °F 75% 29.99 in 10.0 mi Calm Calm - N/A   Clear
8:34 AM 46.2 °F - 36.5 °F 69% 29.99 in 10.0 mi Calm Calm - N/A   Clear
8:54 AM 47.1 °F - 35.8 °F 65% 29.99 in 10.0 mi NE 3.5 mph - N/A   Clear
9:14 AM 48.4 °F - 36.7 °F 64% 29.97 in 10.0 mi ENE 5.8 mph - N/A   Clear
9:34 AM 50.4 °F - 36.5 °F 59% 29.97 in 10.0 mi NE 5.8 mph - N/A   Clear
9:54 AM 50.9 °F - 37.0 °F 59% 29.98 in 10.0 mi NNE 4.6 mph - N/A   Clear
10:14 AM 52.2 °F - 36.7 °F 56% 29.99 in 10.0 mi North 4.6 mph - N/A   Clear
10:34 AM 53.6 °F - 36.1 °F 52% 29.99 in 10.0 mi North 4.6 mph - N/A   Clear
10:54 AM 54.9 °F - 36.0 °F 49% 29.99 in 10.0 mi Calm Calm - N/A   Clear
11:14 AM 55.2 °F - 34.3 °F 45% 29.99 in 10.0 mi NW 3.5 mph - N/A   Clear
11:35 AM 56.3 °F - 33.8 °F 43% 29.99 in 10.0 mi North 3.5 mph - N/A   Clear
11:55 AM 57.0 °F - 33.6 °F 41% 29.99 in 10.0 mi North 5.8 mph - N/A   Clear
12:14 PM 57.4 °F - 34.3 °F 42% 29.98 in 10.0 mi NW 3.5 mph - N/A   Clear
12:34 PM 58.5 °F - 32.5 °F 38% 29.97 in 10.0 mi NNE 5.8 mph - N/A   Clear
1:14 PM 59.7 °F - 32.0 °F 35% 29.97 in 10.0 mi East 8.1 mph - N/A   Clear
1:34 PM 60.4 °F - 32.2 °F 35% 29.96 in 10.0 mi East 5.8 mph - N/A   Clear
1:54 PM 61.7 °F - 33.4 °F 35% 29.95 in 10.0 mi North 10.4 mph - N/A   Clear
2:14 PM 62.8 °F - 33.8 °F 34% 29.95 in 10.0 mi NE 8.1 mph - N/A   Clear
2:34 PM 63.3 °F - 33.6 °F 33% 29.94 in 10.0 mi NE 10.4 mph - N/A   Clear
2:54 PM 64.0 °F - 33.3 °F 32% 29.93 in 10.0 mi NNE 8.1 mph 16.1 mph N/A   Clear
3:14 PM 63.9 °F - 34.0 °F 33% 29.93 in 10.0 mi ENE 10.4 mph - N/A   Clear
3:34 PM 64.9 °F - 34.9 °F 33% 29.92 in 10.0 mi NNE 11.5 mph 17.3 mph N/A   Clear
3:54 PM 65.5 °F - 35.1 °F 32% 29.91 in 10.0 mi East 16.1 mph - N/A   Clear
4:14 PM 65.7 °F - 35.6 °F 33% 29.90 in 10.0 mi ENE 8.1 mph - N/A   Clear
4:34 PM 65.7 °F - 34.3 °F 31% 29.90 in 10.0 mi ENE 9.2 mph - N/A   Clear
4:54 PM 66.2 °F - 34.7 °F 31% 29.89 in 10.0 mi East 9.2 mph 16.1 mph N/A   Clear
5:14 PM 66.0 °F - 34.7 °F 31% 29.88 in 10.0 mi ENE 12.7 mph 18.4 mph N/A   Clear
5:34 PM 66.0 °F - 35.4 °F 32% 29.88 in 10.0 mi ENE 8.1 mph - N/A   Clear
5:54 PM 66.4 °F - 36.1 °F 33% 29.88 in 10.0 mi ENE 8.1 mph 16.1 mph N/A   Clear
6:14 PM 65.7 °F - 36.3 °F 34% 29.88 in 10.0 mi East 12.7 mph - N/A   Clear
6:34 PM 65.5 °F - 36.7 °F 35% 29.88 in 10.0 mi East 10.4 mph - N/A   Clear
6:54 PM 64.9 °F - 36.1 °F 34% 29.87 in 10.0 mi East 10.4 mph 16.1 mph N/A   Clear
7:15 PM 64.4 °F - 37.0 °F 36% 29.87 in 10.0 mi East 10.4 mph - N/A   Clear
7:34 PM 63.3 °F - 38.5 °F 40% 29.88 in 10.0 mi East 9.2 mph - N/A   Clear
7:54 PM 62.1 °F - 40.1 °F 44% 29.88 in 10.0 mi East 8.1 mph - N/A   Clear
8:14 PM 60.1 °F - 41.5 °F 50% 29.88 in 10.0 mi East 5.8 mph - N/A   Clear
8:34 PM 57.4 °F - 41.9 °F 56% 29.88 in 5.0 mi East 8.1 mph - N/A   Haze
8:54 PM 55.2 °F - 41.5 °F 60% 29.88 in 10.0 mi East 9.2 mph - N/A   Clear
9:14 PM 55.0 °F - 41.0 °F 59% 29.88 in 10.0 mi East 6.9 mph - N/A   Clear
9:34 PM 53.2 °F - 40.5 °F 62% 29.90 in 10.0 mi East 4.6 mph - N/A   Clear
9:54 PM 52.7 °F - 40.8 °F 64% 29.90 in 10.0 mi ESE 5.8 mph - N/A   Clear
10:14 PM 51.8 °F - 40.1 °F 64% 29.90 in 10.0 mi ESE 3.5 mph - N/A   Clear
10:34 PM 50.9 °F - 40.3 °F 67% 29.90 in 10.0 mi SE 4.6 mph - N/A   Clear
10:55 PM 51.4 °F - 40.1 °F 65% 29.90 in 10.0 mi SE 3.5 mph - N/A   Clear
11:14 PM 49.6 °F - 40.1 °F 70% 29.90 in 10.0 mi Calm Calm - N/A   Clear
11:34 PM 48.9 °F - 40.1 °F 72% 29.90 in 10.0 mi Calm Calm - N/A   Clear
11:54 PM 46.4 °F - 39.4 °F 77% 29.91 in 10.0 mi Calm Calm - N/A   Clear